When you browse on this site, cookies collect data to enhance your experience and personalize the content and advertising you see.
Visit our Privacy Policy to learn more. By continuing to use the site, you agree to this use of cookies and data.
  • In Hungary
  • List of Countries
  • For 7 days
  • Water Temperature
  • Weather Map
  • News
  • Weather Widgets
  • user-avatar
    Login

    Hourly Weather Fatyanovka

    Today, 20 January, Monday

    Time Temperature Precipitation Wind Pressure Humidity
    00:00 -2°C° 0 mm 3 mps 758 mmHg 92%
    01:00 -3°C° 0 mm 4 mps 758 mmHg 92%
    02:00 -3°C° 0 mm 4 mps 758 mmHg 92%
    03:00 -3°C° 0 mm 4 mps 758 mmHg 92%
    04:00 -3°C° 0 mm 4 mps 758 mmHg 91%
    05:00 -3°C° 0 mm 4 mps 758 mmHg 91%
    06:00 -2°C° 0 mm 4 mps 757 mmHg 90%
    07:00 -2°C° 0 mm 4 mps 757 mmHg 91%
    08:00 -3°C° 0 mm 4 mps 757 mmHg 91%
    09:00 -4°C° 0 mm 5 mps 757 mmHg 91%
    10:00 -2°C° 0 mm 5 mps 757 mmHg 91%
    11:00 -2°C° 0 mm 5 mps 757 mmHg 90%
    12:00 -1°C° 0 mm 5 mps 756 mmHg 90%
    13:00 -1°C° 0 mm 5 mps 756 mmHg 90%
    14:00 -1°C° 0 mm 5 mps 756 mmHg 89%
    15:00 -1°C° 0 mm 5 mps 756 mmHg 89%
    16:00 -1°C° 0 mm 5 mps 756 mmHg 90%
    17:00 -1°C° 0 mm 5 mps 756 mmHg 92%
    18:00 -1°C° 0 mm 5 mps 755 mmHg 93%
    19:00 -1°C° 0 mm 5 mps 755 mmHg 94%
    20:00 -1°C° 0 mm 5 mps 755 mmHg 95%
    21:00 -2°C° 0 mm 5 mps 755 mmHg 96%
    22:00 -2°C° 0 mm 5 mps 754 mmHg 96%
    23:00 -2°C° 0 mm 5 mps 754 mmHg 96%

    Tomorrow, 21 January, Tuesday

    Time Temperature Precipitation Wind Pressure Humidity
    00:00 -2°C° 0 mm 5 mps 753 mmHg 95%
    01:00 -2°C° 0 mm 5 mps 753 mmHg 95%
    02:00 -3°C° 0 mm 6 mps 753 mmHg 95%
    03:00 -3°C° 0 mm 6 mps 752 mmHg 95%
    04:00 -2°C° 0 mm 5 mps 752 mmHg 93%
    05:00 -2°C° 0 mm 5 mps 751 mmHg 90%
    06:00 -4°C° 0 mm 5 mps 750 mmHg 88%
    07:00 -4°C° 0.3 mm 5 mps 750 mmHg 91%
    08:00 -4°C° 0.3 mm 6 mps 749 mmHg 93%
    09:00 -4°C° 0.3 mm 6 mps 749 mmHg 96%
    10:00 -4°C° 0.4 mm 6 mps 748 mmHg 95%
    11:00 -3°C° 0.4 mm 7 mps 747 mmHg 95%
    12:00 -3°C° 0.4 mm 7 mps 746 mmHg 95%
    13:00 -3°C° 0.2 mm 7 mps 746 mmHg 95%
    14:00 -2°C° 0.2 mm 7 mps 745 mmHg 94%
    15:00 -1°C° 0.2 mm 7 mps 745 mmHg 94%
    16:00 -1°C° 0 mm 6 mps 744 mmHg 94%
    17:00 -1°C° 0 mm 6 mps 743 mmHg 95%
    18:00 -1°C° 0 mm 6 mps 742 mmHg 95%
    19:00 -1°C° 0.2 mm 6 mps 742 mmHg 95%
    20:00 -1°C° 0.2 mm 6 mps 741 mmHg 96%
    21:00 -1°C° 0.2 mm 6 mps 741 mmHg 96%
    22:00 +1°C° 1 mm 6 mps 740 mmHg 96%
    23:00 +1°C° 1 mm 6 mps 739 mmHg 95%

    Day after tomorrow, 22 January, Wednesday

    Time Temperature Precipitation Wind Pressure Humidity
    00:00 0°C° 1 mm 7 mps 738 mmHg 95%
    01:00 0°C° 0.2 mm 7 mps 738 mmHg 94%
    02:00 +2°C° 0.2 mm 7 mps 738 mmHg 93%
    03:00 +2°C° 0.2 mm 7 mps 738 mmHg 91%
    04:00 0°C° 0.2 mm 7 mps 738 mmHg 91%
    05:00 -1°C° 0.2 mm 6 mps 738 mmHg 91%
    06:00 -1°C° 0.2 mm 5 mps 738 mmHg 90%
    07:00 -2°C° 0.1 mm 5 mps 738 mmHg 87%
    08:00 -2°C° 0.1 mm 5 mps 738 mmHg 84%
    09:00 -2°C° 0.1 mm 5 mps 738 mmHg 80%
    10:00 -3°C° 0 mm 6 mps 738 mmHg 79%
    11:00 -3°C° 0 mm 6 mps 738 mmHg 77%
    12:00 -3°C° 0 mm 6 mps 738 mmHg 76%
    13:00 -2°C° 0 mm 5 mps 738 mmHg 77%
    14:00 -2°C° 0 mm 5 mps 737 mmHg 77%
    15:00 -2°C° 0 mm 5 mps 737 mmHg 78%
    16:00 -2°C° 0 mm 4 mps 737 mmHg 80%
    17:00 -3°C° 0 mm 4 mps 736 mmHg 83%
    18:00 -3°C° 0 mm 4 mps 736 mmHg 85%
    19:00 -3°C° 0.1 mm 4 mps 736 mmHg 85%
    20:00 -3°C° 0.1 mm 4 mps 736 mmHg 85%
    21:00 -4°C° 0.1 mm 4 mps 736 mmHg 84%
    22:00 -4°C° 0 mm 4 mps 737 mmHg 85%
    23:00 -4°C° 0 mm 4 mps 737 mmHg 86%

    23 January, Thursday

    Time Temperature Precipitation Wind Pressure Humidity
    00:00 -4°C° 0 mm 4 mps 737 mmHg 87%
    01:00 -4°C° 0 mm 4 mps 737 mmHg 86%
    02:00 -5°C° 0 mm 4 mps 737 mmHg 85%
    03:00 -6°C° 0 mm 5 mps 738 mmHg 84%
    04:00 -6°C° 0 mm 5 mps 738 mmHg 83%
    05:00 -6°C° 0 mm 5 mps 738 mmHg 82%
    06:00 -6°C° 0 mm 5 mps 738 mmHg 81%
    07:00 -6°C° 0.1 mm 5 mps 739 mmHg 78%
    08:00 -6°C° 0.1 mm 6 mps 739 mmHg 76%
    09:00 -6°C° 0.1 mm 6 mps 740 mmHg 73%
    10:00 -8°C° 0 mm 6 mps 740 mmHg 71%
    11:00 -8°C° 0 mm 6 mps 741 mmHg 70%
    12:00 -8°C° 0 mm 6 mps 741 mmHg 68%
    13:00 -9°C° 0 mm 7 mps 742 mmHg 67%
    14:00 -9°C° 0 mm 7 mps 742 mmHg 65%
    15:00 -9°C° 0 mm 7 mps 743 mmHg 64%
    16:00 -9°C° 0 mm 6 mps 743 mmHg 65%
    17:00 -8°C° 0 mm 5 mps 744 mmHg 66%
    18:00 -9°C° 0 mm 4 mps 744 mmHg 68%
    19:00 -9°C° 0 mm 4 mps 745 mmHg 69%
    20:00 -9°C° 0 mm 4 mps 745 mmHg 71%
    21:00 -9°C° 0 mm 4 mps 746 mmHg 73%
    22:00 -9°C° 0 mm 4 mps 747 mmHg 74%
    23:00 -9°C° 0 mm 4 mps 747 mmHg 75%

    24 January, Friday

    Time Temperature Precipitation Wind Pressure Humidity
    00:00 -9°C° 0 mm 3 mps 748 mmHg 76%
    01:00 -10°C° 0 mm 4 mps 748 mmHg 76%
    02:00 -10°C° 0 mm 4 mps 748 mmHg 76%
    03:00 -10°C° 0 mm 4 mps 749 mmHg 77%
    04:00 -10°C° 0 mm 4 mps 748 mmHg 78%
    05:00 -9°C° 0 mm 3 mps 748 mmHg 79%
    06:00 -9°C° 0 mm 3 mps 748 mmHg 81%
    07:00 -9°C° 0 mm 3 mps 747 mmHg 80%
    08:00 -9°C° 0 mm 4 mps 747 mmHg 80%
    09:00 -9°C° 0 mm 4 mps 747 mmHg 80%
    10:00 -8°C° 0.1 mm 5 mps 746 mmHg 84%
    11:00 -9°C° 0.1 mm 6 mps 745 mmHg 88%
    12:00 -8°C° 0.1 mm 6 mps 744 mmHg 91%
    13:00 -8°C° 0.3 mm 6 mps 743 mmHg 92%
    14:00 -7°C° 0.3 mm 7 mps 742 mmHg 92%
    15:00 -6°C° 0.3 mm 7 mps 741 mmHg 93%
    16:00 -5°C° 0.3 mm 6 mps 741 mmHg 94%
    17:00 -5°C° 0.3 mm 6 mps 740 mmHg 95%
    18:00 -4°C° 0.3 mm 6 mps 740 mmHg 96%
    19:00 -3°C° 0.3 mm 6 mps 740 mmHg 93%
    20:00 -3°C° 0.3 mm 6 mps 740 mmHg 90%
    21:00 -2°C° 0.3 mm 6 mps 740 mmHg 87%
    22:00 -3°C° 0 mm 6 mps 740 mmHg 86%
    23:00 -4°C° 0 mm 6 mps 741 mmHg 84%

    25 January, Saturday

    Time Temperature Precipitation Wind Pressure Humidity
    00:00 -4°C° 0 mm 6 mps 741 mmHg 83%
    01:00 -5°C° 0 mm 6 mps 741 mmHg 83%
    02:00 -5°C° 0 mm 5 mps 742 mmHg 82%
    03:00 -5°C° 0 mm 5 mps 742 mmHg 82%
    04:00 -6°C° 0 mm 5 mps 743 mmHg 82%
    05:00 -6°C° 0 mm 5 mps 743 mmHg 83%
    06:00 -6°C° 0 mm 5 mps 743 mmHg 83%
    07:00 -5°C° 0 mm 4 mps 744 mmHg 84%
    08:00 -5°C° 0 mm 4 mps 744 mmHg 84%
    09:00 -5°C° 0 mm 4 mps 745 mmHg 85%
    10:00 -4°C° 0 mm 4 mps 745 mmHg 84%
    11:00 -4°C° 0 mm 4 mps 746 mmHg 83%
    12:00 -3°C° 0 mm 4 mps 746 mmHg 82%
    13:00 -3°C° 0 mm 4 mps 746 mmHg 83%
    14:00 -3°C° 0 mm 4 mps 746 mmHg 85%
    15:00 -2°C° 0 mm 3 mps 746 mmHg 86%
    16:00 -3°C° 0 mm 4 mps 746 mmHg 88%
    17:00 -3°C° 0 mm 4 mps 747 mmHg 90%
    18:00 -3°C° 0 mm 4 mps 747 mmHg 92%
    19:00 -3°C° 0 mm 4 mps 747 mmHg 93%
    20:00 -2°C° 0 mm 4 mps 747 mmHg 93%
    21:00 -2°C° 0 mm 4 mps 747 mmHg 93%
    22:00 -2°C° 0 mm 4 mps 747 mmHg 93%
    23:00 -1°C° 0 mm 4 mps 747 mmHg 93%
    Show more